OE4EWA-13 Weather Reports


Display with metric or nautical units.
time (UTC)temp
F
wind
direction
speed
MPH
gust
MPH
rain 1hr
in
rain 24hr
in
rain mn
in
humidity
%
barometer
mb
20260905230000 66 277 9.0 0.0 0.00 0.00 0.00 56 1000.0
20260905224501 66 277 9.0 0.0 0.00 0.00 0.00 56 1000.0
20260905223001 67 263 7.0 0.0 0.00 0.00 0.00 56 1000.0
20260905221500 67 263 7.0 0.0 0.00 0.00 0.00 54 1000.0
20260905220001 67 263 7.0 0.0 0.00 0.00 0.00 54 1000.0
20260905214500 68 263 7.0 0.0 0.00 0.00 0.00 54 1000.0
20260905213000 68 262 6.0 0.0 0.00 0.00 0.00 54 1000.0
20260905211500 67 262 6.0 0.0 0.00 0.00 0.00 55 1000.0
20260905210001 67 262 6.0 0.0 0.00 0.00 0.00 55 1000.0
20260905204500 67 262 6.0 0.0 0.00 0.00 0.00 55 1000.0
20260905203000 68 307 7.0 0.0 0.00 0.00 0.00 55 1000.0
20260905201500 68 307 7.0 0.0 0.00 0.00 0.00 55 1000.0
20260905200001 69 307 7.0 0.0 0.00 0.00 0.00 53 999.0
20260905194501 71 307 7.0 0.0 0.00 0.00 0.00 53 999.0
20260905193000 71 321 7.0 0.0 0.00 0.00 0.00 52 999.0
20260905191500 71 321 7.0 0.0 0.00 0.00 0.00 49 999.0
20260905190001 71 321 7.0 0.0 0.00 0.00 0.00 51 999.0
20260905184500 72 321 7.0 0.0 0.00 0.00 0.00 51 998.0
20260905183000 73 328 10.0 0.0 0.00 0.00 0.00 48 998.0
20260905181500 73 328 10.0 0.0 0.00 0.00 0.00 50 998.0
20260905180000 74 328 10.0 0.0 0.00 0.00 0.00 48 998.0
20260905174500 75 328 10.0 0.0 0.00 0.00 0.00 45 997.0
20260905173000 77 313 11.0 0.0 0.00 0.00 0.00 43 997.0
20260905171500 78 313 11.0 0.0 0.00 0.00 0.00 41 997.0
20260905170000 79 313 11.0 0.0 0.00 0.00 0.00 43 997.0
20260905164501 81 313 11.0 0.0 0.00 0.00 0.00 41 996.0
20260905163000 82 309 13.0 0.0 0.00 0.00 0.00 35 996.0
20260905161500 82 309 13.0 0.0 0.00 0.00 0.00 35 996.0
20260905160000 83 309 13.0 0.0 0.00 0.00 0.00 35 996.0
20260905154500 83 309 13.0 0.0 0.00 0.00 0.00 36 996.0
20260905153000 83 315 12.0 0.0 0.00 0.00 0.00 36 996.0
20260905151500 84 315 12.0 0.0 0.00 0.00 0.00 36 996.0
20260905150000 85 315 12.0 0.0 0.00 0.00 0.00 37 996.0
20260905144500 85 315 12.0 0.0 0.00 0.00 0.00 37 996.0
20260905143000 85 337 10.0 0.0 0.00 0.00 0.00 37 996.0
20260905141500 85 337 10.0 0.0 0.00 0.00 0.00 36 996.0
20260905140000 85 337 10.0 0.0 0.00 0.00 0.00 41 996.0
20260905134500 84 337 10.0 0.0 0.00 0.00 0.00 41 996.0
20260905133000 83 337 10.0 0.0 0.00 0.00 0.00 43 996.0
20260905131500 81 333 11.0 0.0 0.00 0.00 0.00 46 996.0
20260905130000 81 333 11.0 0.0 0.00 0.00 0.00 47 996.0
20260905124500 81 333 11.0 0.0 0.00 0.00 0.00 46 996.0
20260905123000 79 333 11.0 0.0 0.00 0.00 0.00 48 997.0
20260905121500 77 329 10.0 0.0 0.00 0.00 0.00 49 996.0
20260905120000 78 329 10.0 0.0 0.00 0.00 0.00 47 997.0
20260905114500 77 329 10.0 0.0 0.00 0.00 0.00 49 997.0
20260905113000 77 329 10.0 0.0 0.00 0.00 0.00 49 997.0
20260905111500 77 329 6.0 0.0 0.00 0.00 0.00 48 997.0
20260905110000 77 329 6.0 0.0 0.00 0.00 0.00 48 996.0
20260905104500 78 329 6.0 0.0 0.00 0.00 0.00 46 997.0
20260905103000 80 329 6.0 0.0 0.00 0.00 0.00 44 997.0
20260905101500 82 340 7.0 0.0 0.00 0.00 0.00 43 996.0
20260905100000 82 340 7.0 0.0 0.00 0.00 0.00 43 997.0
20260905094500 79 340 7.0 0.0 0.00 0.00 0.00 45 997.0
20260905093000 76 340 7.0 0.0 0.00 0.00 0.00 49 997.0
20260905091500 74 337 11.0 0.0 0.00 0.00 0.00 51 997.0
20260905090001 74 337 11.0 0.0 0.00 0.00 0.00 49 997.0
20260905084500 74 337 11.0 0.0 0.00 0.00 0.00 49 998.0
20260905083000 73 337 11.0 0.0 0.00 0.00 0.00 48 998.0
20260905081500 70 346 15.0 0.0 0.00 0.00 0.00 52 998.0
20260905080000 70 346 15.0 0.0 0.00 0.00 0.00 52 998.0
20260905074500 70 346 15.0 0.0 0.00 0.00 0.00 52 998.0
20260905073000 70 346 15.0 0.0 0.00 0.00 0.00 51 997.0
20260905071500 70 335 12.0 0.0 0.00 0.00 0.00 51 997.0
20260905070000 71 335 12.0 0.0 0.00 0.00 0.00 52 997.0
20260905064500 70 335 12.0 0.0 0.00 0.00 0.00 52 997.0
20260905063000 70 335 12.0 0.0 0.00 0.00 0.00 53 997.0
20260905061500 71 326 15.0 0.0 0.00 0.00 0.00 52 996.0
20260905060000 71 326 15.0 0.0 0.00 0.00 0.00 49 996.0
20260905054500 73 326 15.0 0.0 0.00 0.00 0.00 46 995.0
20260905053000 72 326 15.0 0.0 0.00 0.00 0.00 49 995.0
20260905051500 72 331 14.0 0.0 0.00 0.00 0.00 51 994.0
20260905050001 73 331 14.0 0.0 0.00 0.00 0.00 49 994.0
20260905044502 72 331 14.0 0.0 0.00 0.00 0.00 56 994.0
20260905043000 70 331 14.0 0.0 0.00 0.00 0.00 62 993.0
20260905041501 70 304 7.0 0.0 0.00 0.00 0.00 64 992.0
20260905040000 69 304 7.0 0.0 0.00 0.00 0.00 64 991.0
20260905034501 69 304 7.0 0.0 0.00 0.00 0.00 65 991.0
20260905033000 70 304 7.0 0.0 0.00 0.00 0.00 65 991.0
20260905031500 69 284 6.0 0.0 0.00 0.00 0.00 64 991.0
20260905030005 70 284 6.0 0.0 0.00 0.00 0.00 64 991.0
20260905024500 70 284 6.0 0.0 0.00 0.00 0.00 64 991.0
20260905023000 69 284 6.0 0.0 0.00 0.00 0.00 62 991.0
20260905021500 68 271 5.0 0.0 0.00 0.00 0.00 65 991.0
20260905020000 68 271 5.0 0.0 0.00 0.00 0.00 67 991.0
20260905014500 68 271 5.0 0.0 0.00 0.00 0.00 67 991.0
20260905013000 68 271 5.0 0.0 0.00 0.00 0.00 67 991.0
20260905011500 68 271 5.0 0.0 0.00 0.00 0.00 67 991.0
20260905010000 69 268 5.0 0.0 0.00 0.00 0.00 65 991.0
20260905004500 69 268 5.0 0.0 0.00 0.00 0.00 65 991.0
20260905003000 70 268 5.0 0.0 0.00 0.00 0.00 65 991.0
20260905001500 70 268 5.0 0.0 0.00 0.00 0.00 66 991.0
20260905000000 70 267 5.0 0.0 0.00 0.00 0.00 66 991.0
20260904234500 70 267 5.0 0.0 0.00 0.00 0.00 64 991.0
20260904233000 70 267 5.0 0.0 0.00 0.00 0.00 64 991.0
20260904231500 70 267 5.0 0.0 0.00 0.00 0.00 64 991.0